• In Hungary
  • List of Countries
  • For 7 days
  • Water Temperature
  • Satellite Maps
  • Weather Map
  • News
  • Weather Widgets
  • user-avatar
    Login

    Hourly Weather Solden

    Today, 21 November, Tuesday

    Time Temperature Precipitation Wind Pressure Humidity
    00:00 -8°C° 0 mm 2 mps 579 mmHg 72%
    01:00 -7°C° 0 mm 2 mps 579 mmHg 73%
    02:00 -6°C° 0.1 mm 2 mps 579 mmHg 75%
    03:00 -6°C° 0.1 mm 2 mps 579 mmHg 76%
    04:00 -6°C° 0.1 mm 2 mps 579 mmHg 78%
    05:00 -6°C° 0.1 mm 2 mps 579 mmHg 79%
    06:00 -6°C° 0.1 mm 2 mps 580 mmHg 81%
    07:00 -5°C° 0.1 mm 2 mps 580 mmHg 82%
    08:00 -4°C° 0 mm 2 mps 581 mmHg 80%
    09:00 -2°C° 0 mm 2 mps 581 mmHg 78%
    10:00 -1°C° 0 mm 2 mps 582 mmHg 75%
    11:00 +2°C° 0 mm 1 mps 582 mmHg 75%
    12:00 +2°C° 0 mm 1 mps 583 mmHg 75%
    13:00 +3°C° 0 mm 1 mps 583 mmHg 74%
    14:00 +2°C° 0 mm 1 mps 582 mmHg 77%
    15:00 +1°C° 0 mm 1 mps 582 mmHg 80%
    16:00 0°C° 0 mm 1 mps 581 mmHg 82%
    17:00 -1°C° 0 mm 1 mps 581 mmHg 83%
    18:00 -2°C° 0 mm 1 mps 581 mmHg 84%
    19:00 -5°C° 0 mm 2 mps 580 mmHg 84%
    20:00 -3°C° 0 mm 1 mps 580 mmHg 83%
    21:00 -3°C° 0 mm 1 mps 580 mmHg 82%
    22:00 -3°C° 0 mm 1 mps 580 mmHg 81%
    23:00 -3°C° 0 mm 1 mps 580 mmHg 79%

    Tomorrow, 22 November, Wednesday

    Time Temperature Precipitation Wind Pressure Humidity
    00:00 -3°C° 0 mm 1 mps 580 mmHg 77%
    01:00 -3°C° 0 mm 1 mps 580 mmHg 75%
    02:00 -3°C° 0 mm 1 mps 580 mmHg 73%
    03:00 -3°C° 0 mm 1 mps 580 mmHg 71%
    04:00 -4°C° 0 mm 1 mps 580 mmHg 69%
    05:00 -4°C° 0 mm 1 mps 580 mmHg 68%
    06:00 -4°C° 0 mm 1 mps 580 mmHg 66%
    07:00 -4°C° 0 mm 1 mps 580 mmHg 65%
    08:00 -2°C° 0 mm 1 mps 580 mmHg 64%
    09:00 0°C° 0 mm 1 mps 581 mmHg 63%
    10:00 +2°C° 0 mm 1 mps 582 mmHg 62%
    11:00 +2°C° 0 mm 1 mps 583 mmHg 65%
    12:00 +3°C° 0 mm 1 mps 583 mmHg 68%
    13:00 +3°C° 0 mm 2 mps 583 mmHg 71%
    14:00 +1°C° 0 mm 2 mps 582 mmHg 73%
    15:00 -1°C° 0 mm 2 mps 581 mmHg 76%
    16:00 0°C° 0 mm 1 mps 581 mmHg 79%
    17:00 -3°C° 0 mm 2 mps 580 mmHg 80%
    18:00 -4°C° 0 mm 2 mps 580 mmHg 81%
    19:00 -5°C° 0 mm 2 mps 580 mmHg 82%
    20:00 -5°C° 0 mm 2 mps 580 mmHg 82%
    21:00 -5°C° 0 mm 2 mps 580 mmHg 81%
    22:00 -5°C° 0 mm 2 mps 580 mmHg 81%
    23:00 -6°C° 0 mm 2 mps 580 mmHg 81%

    Day after tomorrow, 23 November, Thursday

    Time Temperature Precipitation Wind Pressure Humidity
    00:00 -6°C° 0 mm 2 mps 580 mmHg 81%
    01:00 -6°C° 0 mm 2 mps 579 mmHg 81%
    02:00 -6°C° 0 mm 2 mps 579 mmHg 80%
    03:00 -6°C° 0 mm 2 mps 579 mmHg 80%
    04:00 -6°C° 0 mm 2 mps 579 mmHg 79%
    05:00 -6°C° 0 mm 2 mps 579 mmHg 78%
    06:00 -6°C° 0 mm 2 mps 579 mmHg 77%
    07:00 -7°C° 0 mm 2 mps 579 mmHg 76%
    08:00 -3°C° 0 mm 1 mps 580 mmHg 73%
    09:00 -1°C° 0 mm 1 mps 581 mmHg 70%
    10:00 +1°C° 0 mm 1 mps 582 mmHg 67%
    11:00 +2°C° 0 mm 1 mps 583 mmHg 68%
    12:00 +2°C° 0 mm 1 mps 583 mmHg 69%
    13:00 +3°C° 0 mm 1 mps 583 mmHg 69%
    14:00 +1°C° 0 mm 0 mps 583 mmHg 71%
    15:00 0°C° 0 mm 0 mps 582 mmHg 72%
    16:00 -2°C° 0 mm 0 mps 582 mmHg 73%
    17:00 -2°C° 0 mm 0 mps 582 mmHg 73%
    18:00 -2°C° 0 mm 1 mps 582 mmHg 73%
    19:00 -3°C° 0 mm 1 mps 582 mmHg 73%
    20:00 -3°C° 0 mm 1 mps 582 mmHg 72%
    21:00 -3°C° 0 mm 1 mps 582 mmHg 70%
    22:00 -4°C° 0 mm 1 mps 582 mmHg 69%
    23:00 -4°C° 0 mm 1 mps 582 mmHg 68%

    24 November, Friday

    Time Temperature Precipitation Wind Pressure Humidity
    00:00 -4°C° 0 mm 1 mps 582 mmHg 68%
    01:00 -4°C° 0 mm 1 mps 582 mmHg 68%
    02:00 -4°C° 0 mm 1 mps 582 mmHg 68%
    03:00 -6°C° 0 mm 2 mps 582 mmHg 69%
    04:00 -6°C° 0 mm 2 mps 582 mmHg 69%
    05:00 -6°C° 0 mm 2 mps 582 mmHg 69%
    06:00 -6°C° 0 mm 2 mps 582 mmHg 69%
    07:00 -6°C° 0 mm 2 mps 582 mmHg 69%
    08:00 -4°C° 0 mm 2 mps 583 mmHg 68%
    09:00 -3°C° 0 mm 2 mps 584 mmHg 66%
    10:00 +1°C° 0 mm 1 mps 584 mmHg 64%
    11:00 +1°C° 0 mm 2 mps 584 mmHg 65%
    12:00 +2°C° 0 mm 2 mps 585 mmHg 65%
    13:00 +2°C° 0 mm 2 mps 585 mmHg 65%
    14:00 +1°C° 0 mm 2 mps 584 mmHg 68%
    15:00 +1°C° 0 mm 1 mps 583 mmHg 72%
    16:00 0°C° 0 mm 1 mps 583 mmHg 75%
    17:00 -1°C° 0 mm 1 mps 582 mmHg 76%
    18:00 -2°C° 0 mm 1 mps 582 mmHg 76%
    19:00 -3°C° 0 mm 1 mps 582 mmHg 77%
    20:00 -3°C° 0 mm 1 mps 582 mmHg 76%
    21:00 -3°C° 0 mm 1 mps 582 mmHg 75%
    22:00 -3°C° 0 mm 1 mps 582 mmHg 74%
    23:00 -3°C° 0 mm 1 mps 582 mmHg 74%

    25 November, Saturday

    Time Temperature Precipitation Wind Pressure Humidity
    00:00 -3°C° 0 mm 1 mps 582 mmHg 74%
    01:00 -5°C° 0 mm 2 mps 582 mmHg 74%
    02:00 -5°C° 0 mm 2 mps 582 mmHg 75%
    03:00 -5°C° 0 mm 2 mps 582 mmHg 76%
    04:00 -5°C° 0 mm 2 mps 582 mmHg 77%
    05:00 -5°C° 0 mm 2 mps 581 mmHg 79%
    06:00 -5°C° 0 mm 2 mps 581 mmHg 80%
    07:00 -5°C° 0 mm 2 mps 581 mmHg 81%
    08:00 -4°C° 0 mm 2 mps 582 mmHg 80%
    09:00 -3°C° 0 mm 2 mps 582 mmHg 79%
    10:00 -1°C° 0 mm 2 mps 583 mmHg 78%
    11:00 -1°C° 0 mm 3 mps 583 mmHg 79%
    12:00 0°C° 0 mm 3 mps 582 mmHg 80%
    13:00 0°C° 0 mm 3 mps 582 mmHg 82%
    14:00 0°C° 0 mm 3 mps 582 mmHg 84%
    15:00 -1°C° 0 mm 3 mps 582 mmHg 86%
    16:00 -2°C° 0 mm 2 mps 581 mmHg 89%
    17:00 -2°C° 0 mm 2 mps 581 mmHg 90%
    18:00 -3°C° 0 mm 2 mps 581 mmHg 92%
    19:00 -3°C° 0 mm 2 mps 582 mmHg 93%
    20:00 -3°C° 0.1 mm 2 mps 582 mmHg 93%
    21:00 -3°C° 0.1 mm 2 mps 582 mmHg 94%
    22:00 -2°C° 0.1 mm 1 mps 582 mmHg 94%
    23:00 -2°C° 0.1 mm 1 mps 582 mmHg 94%

    26 November, Sunday

    Time Temperature Precipitation Wind Pressure Humidity
    00:00 -2°C° 0.1 mm 1 mps 582 mmHg 95%
    01:00 -2°C° 0.1 mm 1 mps 582 mmHg 95%
    02:00 -2°C° 0.1 mm 1 mps 582 mmHg 95%
    03:00 -3°C° 0.1 mm 1 mps 582 mmHg 95%
    04:00 -3°C° 0.1 mm 1 mps 582 mmHg 95%
    05:00 -3°C° 0.1 mm 1 mps 582 mmHg 94%
    06:00 -3°C° 0.1 mm 1 mps 583 mmHg 94%
    07:00 -3°C° 0.1 mm 1 mps 583 mmHg 93%
    08:00 -2°C° 0.2 mm 1 mps 583 mmHg 90%
    09:00 -2°C° 0.2 mm 1 mps 584 mmHg 88%
    10:00 -1°C° 0.2 mm 1 mps 584 mmHg 85%
    11:00 -1°C° 0.2 mm 1 mps 584 mmHg 84%
    12:00 -2°C° 0.2 mm 2 mps 585 mmHg 82%
    13:00 -2°C° 0.2 mm 2 mps 585 mmHg 80%
    14:00 -3°C° 0.2 mm 2 mps 584 mmHg 81%
    15:00 -4°C° 0.2 mm 2 mps 584 mmHg 83%
    16:00 -5°C° 0.2 mm 2 mps 584 mmHg 84%
    17:00 -6°C° 0 mm 2 mps 584 mmHg 85%
    18:00 -8°C° 0 mm 2 mps 584 mmHg 85%
    19:00 -9°C° 0 mm 2 mps 583 mmHg 85%
    20:00 -10°C° 0 mm 2 mps 583 mmHg 82%
    21:00 -10°C° 0 mm 2 mps 584 mmHg 80%
    22:00 -10°C° 0 mm 1 mps 584 mmHg 77%
    23:00 -10°C° 0 mm 1 mps 584 mmHg 71%
    Show more